Portada
METAR-TAF:

METAR-TAF

Aeroports :

Barinas, Veneçuela

latitud: 08-37N, longitud: 070-13W, altitud: 203 m

Observació

L'informe es va fer fa 1 hora i 6 minuts, a les 03:03 UTC
Vent 3 kt del Sud
Temperatura 26°C
Humitat 94%
Pressió 1020 hPa

METAR: SVBI 010303Z AUTO 17003KT NCD 26/25 Q1020

Hora: 00:09 (04:09 UTC)


TAF: manca

Observacions i pronòstics meteorològics de més de 4000 aeroports (METAR i TAF).

Les estacions disponibles són els punts grocs i vermells al mapa.

Posi el ratolí al punt desitjat per veure el nom de l'estació.

Feu clic per veure les observacions i els pronòstics meteorològics.

Per canviar el mapa: feu clic els botons verds amb una creu de color negre per apropar; al botó verd amb un guió per allunyar la imatge; o en les fletxes verdes per a mapes adjacents.


METAR-TAF: